Location: Newark
(44.4156°N, 12.1972°E)
Time: 09:38:56
(UTC+00:00)

STARLINK-1125 - Pass Details

Date: 30 January 2020
Orbit: 348 x 350 km, 53.0° (Epoch: 22 February)

Event Time Altitude Azimuth Distance (km) Brightness Sun altitude
Rises 16:43:34 0° 307° (NW) 2,163 7.2 -5.3°
Reaches altitude 10° 16:45:48 10° 321° (NW) 1,318 5.8 -5.6°
Maximum altitude 16:48:19 25° 20° (NNE) 755 4.0 -6.1°
Drops below altitude 10° 16:50:50 10° 79° (E) 1,315 4.9 -6.5°
Enters shadow 16:51:09 - 82° (E) 1,430 5.1 -6.5°
